This demonstration page uses our WeatherBlox Daily Observations layout. Learn more.

Left ArrowRight Arrow

38.88101, -77.10428

Hourly Observations for July 14, 2016

Temp ( °F °C ) Dew Point ( °F °C ) Humidity (%) Winds ( mph kmh ) Pressure ( in mb ) Visibility ( mi km ) Precip ( " mm )
12:52 am 00:52 Cloudy 80 26.7 76 24.4 87 87 SE 6 9 29.98 1015 10 16.0934 0 0
1:52 am 01:52 Mostly Cloudy 79 26.1 76 24.4 90 90 SSE 3 6 29.97 1015 10 16.0934 0 0
2:52 am 02:52 Mostly Cloudy 79 26.1 72 22.2 79 79 W 8 13 29.95 1014 10 16.0934 0 0
2:59 am 02:59 Mostly Clear 79 26.1 71 21.7 77 77 WSW 7 11 29.94 1014 10 16.0934 0 0
3:52 am 03:52 Mostly Clear 76 24.4 71 21.7 85 85 SSW 7 11 29.94 1014 10 16.0934 0 0
4:52 am 04:52 Clear 76 24.4 71 21.7 85 85 SSW 5 7 29.95 1014 10 16.0934 0 0
4:56 am 04:56 Mostly Clear 76 24.4 71 21.7 85 85 SSW 5 7 29.94 1014 10 16.0934 0 0
5:52 am 05:52 Mostly Clear 75 23.9 70 21.1 84 84 SSW 3 6 29.94 1014 10 16.0934 0 0
6:52 am 06:52 Mostly Sunny 76 24.4 72 22.2 88 88 SSW 6 9 29.93 1014 10 16.0934 0 0
7:52 am 07:52 Mostly Sunny 78 25.6 73 22.8 85 85 S 9 15 29.94 1014 10 16.0934 0 0
8:52 am 08:52 Mostly Sunny 81 27.2 74 23.3 79 79 S 8 13 29.95 1014 10 16.0934 0 0
9:52 am 09:52 Mostly Sunny 86 30 75 23.9 70 70 S 7 11 29.95 1014 10 16.0934 0 0
10:52 am 10:52 Mostly Sunny 88 31.1 76 24.4 68 68 S 10 17 29.95 1014 10 16.0934 0 0
11:52 am 11:52 Mostly Sunny 91 32.8 76 24.4 61 61 S 14 22 29.94 1014 10 16.0934 0 0
12:40 pm 12:40 Partly Cloudy 94 34.4 69 20.6 44 44 SW 10 17 29.94 1014 10 16.0934 0 0
12:52 pm 12:52 Partly Cloudy 95 35 68 20 41 41 WSW 15 24 29.93 1014 10 16.0934 0 0
1:52 pm 13:52 Partly Cloudy 97 36.1 70 21.1 42 42 SSW 17 28 29.91 1013 10 16.0934 0 0
2:16 pm 14:16 Mostly Sunny 97 36 70 21 42 42 WSW 8 13 29.91 1013 10 16.0934 0 0
2:52 pm 14:52 Mostly Cloudy 96 35.6 69 20.6 41 41 SW 15 24 29.89 1012 10 16.0934 0 0
3:52 pm 15:52 Mostly Cloudy 97 36.1 71 21.7 43 43 SW 13 20 29.86 1011 10 16.0934 0 0
4:52 pm 16:52 Partly Cloudy 95 35 70 21.1 44 44 SW 15 24 29.85 1011 10 16.0934 0 0
5:52 pm 17:52 Mostly Sunny 94 34.4 72 22.2 49 49 SSW 18 30 29.85 1011 10 16.0934 0 0
6:52 pm 18:52 Mostly Sunny 94 34.4 70 21.1 46 46 SW 20 31 29.85 1011 10 16.0934 0 0
7:52 pm 19:52 Mostly Sunny 91 32.8 70 21.1 50 50 SSW 13 20 29.86 1011 10 16.0934 0 0
8:52 pm 20:52 Mostly Cloudy 88 31.1 72 22.2 59 59 SW 12 19 29.87 1012 10 16.0934 0 0
9:52 pm 21:52 Mostly Cloudy 86 30 73 22.8 65 65 SSW 10 17 29.88 1012 10 16.0934 0 0
10:52 pm 22:52 Mostly Cloudy 84 28.9 74 23.3 72 72 SSW 7 11 29.88 1012 10 16.0934 0 0
11:52 pm 23:52 Mostly Cloudy 84 28.9 74 23.3 72 72 Calm 29.89 1012 10 16.0934 0 0

Powered by AerisWeather